Total_Precipitation_Accumulation
0.01 0.01 0.01 0.00 0.00 0.00 0.00 0.01 0.01 0.02 0.03 0.04 0.06 0.06 0.12 0.20 0.34 0.55 0.66 0.64 0.53 0.48 0.48 0.55 0.63 0.64 0.74 0.65 0.49 0.38 0.30 0.29 0.30 0.19 0.09 0.04 0.03 0.02 0.02 0.01 0.00 0.00 0.00
0.04 0.03 0.01 0.01 0.00 0.00 0.00 0.00 0.00 0.01 0.02 0.04 0.06 0.06 0.10 0.13 0.19 0.32 0.49 0.59 0.58 0.51 0.48 0.52 0.61 0.67 0.78 0.80 0.73 0.59 0.48 0.40 0.37 0.31 0.15 0.08 0.07 0.03 0.02 0.01 0.01 0.00 0.00
0.11 0.07 0.04 0.03 0.02 0.01 0.01 0.00 0.00 0.01 0.02 0.04 0.07 0.10 0.14 0.15 0.13 0.16 0.23 0.32 0.41 0.45 0.44 0.42 0.42 0.50 0.65 0.76 0.76 0.70 0.65 0.50 0.44 0.41 0.27 0.15 0.11 0.06 0.03 0.01 0.01 0.00 0.00
0.21 0.17 0.12 0.06 0.04 0.03 0.03 0.01 0.01 0.01 0.03 0.04 0.07 0.14 0.20 0.19 0.16 0.14 0.15 0.15 0.16 0.19 0.26 0.31 0.32 0.35 0.43 0.49 0.56 0.64 0.74 0.63 0.51 0.46 0.34 0.19 0.14 0.09 0.04 0.01 0.01 0.00 0.00
0.31 0.34 0.25 0.15 0.10 0.08 0.08 0.06 0.04 0.03 0.04 0.05 0.06 0.08 0.12 0.14 0.13 0.16 0.15 0.10 0.09 0.06 0.07 0.10 0.14 0.22 0.30 0.32 0.37 0.49 0.64 0.64 0.53 0.45 0.39 0.25 0.13 0.08 0.04 0.02 0.01 0.01 0.00
0.53 0.48 0.29 0.18 0.15 0.15 0.17 0.16 0.11 0.08 0.08 0.11 0.10 0.08 0.09 0.10 0.10 0.14 0.11 0.08 0.09 0.07 0.05 0.03 0.03 0.07 0.14 0.17 0.21 0.26 0.37 0.45 0.49 0.49 0.43 0.31 0.17 0.09 0.07 0.04 0.01 0.00 0.00
0.45 0.38 0.28 0.20 0.18 0.22 0.26 0.22 0.19 0.16 0.15 0.16 0.16 0.14 0.13 0.17 0.11 0.08 0.09 0.07 0.08 0.08 0.08 0.09 0.07 0.02 0.04 0.06 0.11 0.15 0.14 0.16 0.26 0.39 0.38 0.37 0.38 0.22 0.11 0.07 0.04 0.02 0.01
0.33 0.31 0.25 0.21 0.22 0.26 0.28 0.28 0.32 0.35 0.32 0.30 0.31 0.30 0.27 0.28 0.19 0.09 0.09 0.06 0.06 0.07 0.09 0.10 0.10 0.07 0.05 0.05 0.07 0.09 0.09 0.12 0.20 0.19 0.24 0.40 0.41 0.33 0.20 0.15 0.14 0.10 0.05
0.11 0.11 0.10 0.10 0.12 0.13 0.14 0.20 0.31 0.37 0.38 0.39 0.42 0.41 0.35 0.30 0.23 0.12 0.07 0.05 0.05 0.05 0.06 0.06 0.06 0.06 0.06 0.08 0.12 0.20 0.23 0.24 0.34 0.35 0.33 0.33 0.31 0.28 0.25 0.22 0.16 0.11 0.06
0.01 0.01 0.01 0.01 0.02 0.03 0.05 0.08 0.14 0.18 0.23 0.30 0.32 0.35 0.36 0.33 0.35 0.18 0.12 0.10 0.07 0.09 0.10 0.09 0.10 0.08 0.09 0.11 0.14 0.21 0.19 0.21 0.28 0.30 0.26 0.21 0.17 0.15 0.15 0.14 0.15 0.13 0.09
0.00 0.00 0.00 0.00 0.00 0.00 0.01 0.03 0.05 0.07 0.11 0.15 0.19 0.24 0.31 0.36 0.40 0.31 0.26 0.22 0.17 0.18 0.17 0.15 0.14 0.17 0.11 0.07 0.07 0.10 0.12 0.13 0.16 0.19 0.18 0.13 0.10 0.10 0.09 0.08 0.10 0.12 0.13
0.00 0.00 0.00 0.00 0.00 0.00 0.01 0.01 0.02 0.02 0.05 0.08 0.09 0.13 0.19 0.24 0.30 0.32 0.26 0.24 0.23 0.24 0.25 0.20 0.19 0.21 0.12 0.05 0.04 0.06 0.07 0.08 0.11 0.14 0.14 0.13 0.13 0.11 0.10 0.11 0.10 0.09 0.10
0.00 0.00 0.00 0.00 0.00 0.01 0.01 0.01 0.02 0.02 0.04 0.05 0.08 0.13 0.18 0.24 0.25 0.19 0.15 0.15 0.15 0.21 0.22 0.21 0.22 0.17 0.09 0.04 0.03 0.04 0.05 0.07 0.11 0.13 0.15 0.16 0.16 0.17 0.15 0.14 0.14 0.13 0.13
0.00 0.00 0.00 0.00 0.01 0.01 0.02 0.02 0.03 0.03 0.05 0.08 0.13 0.17 0.21 0.23 0.24 0.21 0.19 0.18 0.16 0.16 0.13 0.10 0.10 0.07 0.05 0.06 0.04 0.03 0.05 0.08 0.09 0.11 0.12 0.14 0.15 0.16 0.18 0.19 0.19 0.19 0.19
0.00 0.00 0.00 0.00 0.01 0.01 0.00 0.01 0.02 0.02 0.03 0.09 0.16 0.20 0.20 0.20 0.14 0.12 0.20 0.29 0.32 0.36 0.34 0.23 0.17 0.12 0.09 0.08 0.06 0.06 0.07 0.09 0.09 0.09 0.08 0.08 0.08 0.09 0.12 0.14 0.17 0.19 0.21
0.00 0.00 0.00 0.00 0.00 0.00 0.00 0.00 0.00 0.01 0.04 0.06 0.06 0.08 0.09 0.09 0.08 0.10 0.13 0.20 0.26 0.31 0.41 0.44 0.41 0.38 0.33 0.25 0.15 0.08 0.05 0.06 0.07 0.07 0.08 0.09 0.08 0.08 0.08 0.08 0.10 0.12 0.14
0.00 0.00 0.00 0.00 0.00 0.01 0.01 0.02 0.04 0.03 0.02 0.01 0.01 0.02 0.08 0.15 0.18 0.22 0.22 0.23 0.23 0.28 0.42 0.50 0.48 0.43 0.36 0.29 0.20 0.12 0.10 0.09 0.10 0.07 0.07 0.09 0.11 0.10 0.08 0.06 0.05 0.06 0.07
0.00 0.00 0.00 0.03 0.04 0.05 0.05 0.08 0.12 0.15 0.12 0.05 0.01 0.01 0.03 0.11 0.14 0.17 0.22 0.31 0.31 0.34 0.39 0.38 0.33 0.23 0.15 0.11 0.07 0.04 0.04 0.05 0.06 0.05 0.05 0.04 0.05 0.05 0.06 0.06 0.06 0.06 0.07
0.00 0.01 0.03 0.07 0.09 0.07 0.08 0.13 0.14 0.10 0.07 0.06 0.03 0.01 0.01 0.03 0.05 0.07 0.14 0.29 0.28 0.20 0.14 0.10 0.07 0.05 0.03 0.02 0.02 0.02 0.01 0.01 0.01 0.01 0.01 0.01 0.02 0.02 0.03 0.04 0.06 0.09 0.12
0.00 0.00 0.02 0.07 0.09 0.07 0.06 0.07 0.06 0.04 0.03 0.03 0.03 0.03 0.03 0.04 0.06 0.07 0.08 0.12 0.10 0.06 0.03 0.03 0.02 0.01 0.01 0.01 0.01 0.01 0.02 0.02 0.02 0.01 0.01 0.01 0.01 0.02 0.03 0.05 0.07 0.09 0.10
0.00 0.00 0.00 0.03 0.05 0.04 0.03 0.03 0.03 0.02 0.02 0.02 0.02 0.01 0.02 0.06 0.07 0.06 0.05 0.04 0.03 0.03 0.03 0.04 0.03 0.01 0.01 0.02 0.02 0.02 0.02 0.03 0.03 0.02 0.02 0.02 0.02 0.02 0.03 0.07 0.10 0.12 0.13
0.00 0.01 0.02 0.04 0.04 0.02 0.02 0.03 0.05 0.04 0.02 0.02 0.02 0.01 0.02 0.06 0.06 0.05 0.04 0.04 0.03 0.03 0.04 0.06 0.05 0.04 0.03 0.02 0.02 0.02 0.02 0.02 0.03 0.03 0.03 0.02 0.02 0.02 0.03 0.05 0.08 0.11 0.14
0.00 0.00 0.01 0.03 0.03 0.01 0.01 0.03 0.04 0.04 0.02 0.02 0.03 0.03 0.03 0.05 0.05 0.05 0.06 0.06 0.06 0.07 0.06 0.06 0.08 0.07 0.04 0.03 0.03 0.03 0.03 0.03 0.03 0.03 0.03 0.03 0.03 0.04 0.04 0.04 0.05 0.07 0.09
0.00 0.00 0.01 0.02 0.02 0.01 0.02 0.03 0.04 0.02 0.03 0.04 0.04 0.05 0.05 0.05 0.04 0.03 0.04 0.05 0.06 0.07 0.05 0.04 0.04 0.03 0.02 0.02 0.03 0.03 0.05 0.05 0.03 0.03 0.04 0.05 0.06 0.06 0.08 0.11 0.14 0.16 0.15
0.00 0.00 0.01 0.02 0.02 0.01 0.01 0.02 0.03 0.03 0.03 0.04 0.03 0.03 0.03 0.03 0.02 0.02 0.04 0.04 0.05 0.06 0.04 0.04 0.04 0.02 0.01 0.01 0.02 0.03 0.05 0.07 0.06 0.06 0.05 0.04 0.06 0.09 0.13 0.20 0.26 0.28 0.28
0.00 0.00 0.00 0.01 0.01 0.01 0.01 0.02 0.03 0.02 0.02 0.02 0.02 0.02 0.03 0.02 0.02 0.01 0.02 0.02 0.03 0.04 0.03 0.03 0.04 0.02 0.01 0.01 0.02 0.04 0.07 0.07 0.06 0.05 0.02 0.01 0.04 0.06 0.08 0.10 0.15 0.19 0.22